Location: Unspecified
(35.6961°N, 0.0000°E)
Time: 22:18:10
(UTC+00:00)

Courier 1B Rocket - Pass Details

Date: 22 May 2019
Orbit: 920 x 1202 km, 28.2° (Epoch: 24 June)

Event Time Altitude Azimuth Distance (km) Brightness Sun altitude
Rises 20:08:32 0° 266° (W) 4,083 9.1 -12.1°
Reaches altitude 10° 20:11:36 10° 260° (W) 3,101 8.2 -12.6°
Maximum altitude 20:18:40 40° 193° (SSW) 1,614 5.9 -13.8°
Enters shadow 20:23:19 20° 136° (SE) 2,340 6.3 -14.5°
